Location: Kouchibouguac National Park
(46.8081°N, 64.9088°W)
Time: 02:59:30
(UTC-03:00)

Daily predictions for brighter satellites

Satellite Brightness Start Highest point End
(mag) Time Altitude Azimuth Time Altitude Azimuth Time Altitude Azimuth
ATLAS 2AS CENTAUR R/B 3.0 00:03:26 12° SSW 00:10:32 74° SE 00:18:38 10° NE
CZ-4C R/B 3.7 00:10:57 36° ESE 00:11:46 43° ENE 00:15:11 10° N
H-2A R/B 3.6 00:08:44 10° NE 00:12:26 29° E 00:13:12 27° ESE
ERBS 2.2 00:12:03 52° SSW 00:12:43 69° SE 00:16:11 10° NE
ALOS 2 3.4 00:10:58 28° ESE 00:12:43 43° ENE 00:16:53 10° N
Cosmos 1933 3.7 00:15:26 10° NNW 00:19:26 58° W 00:20:45 37° SSW
Cosmos 1626 3.9 00:20:37 16° SW 00:22:55 28° WNW 00:26:13 10° NNW
COS B Rocket 3.4 00:20:54 10° N 00:24:35 68° W 00:25:48 41° SSW
Coronas F rocket 4.2 00:26:43 11° ENE 00:26:43 11° ENE 00:26:57 10° ENE
ATLAS 3B R/B 2.7 00:19:37 10° NW 00:26:38 70° WSW 00:30:02 31° SSE
Okean 1-7 2.9 00:26:31 10° N 00:30:49 80° W 00:32:05 45° S
Cosmos 2074 Rocket 4.1 00:28:30 31° SSE 00:31:30 63° E 00:37:44 10° NNE
Cosmos 2227 Rocket 2.9 00:27:04 10° SW 00:32:34 53° WNW 00:38:08 10° NNE
Cosmos 1703 Rocket 4.2 00:29:16 10° NNW 00:33:28 47° W 00:35:00 32° SW
USA 238 DEB 3.9 00:26:29 10° NW 00:33:34 74° NE 00:38:26 22° SE
USA 238 3.9 00:26:35 10° NW 00:33:40 73° NE 00:38:33 21° SE
Helios 1A Rocket 4.2 00:31:25 10° NE 00:35:00 27° E 00:35:35 26° ESE
Cosmos 2251 Rocket 3.9 00:31:03 10° NNW 00:36:21 60° ENE 00:38:51 30° SE
Cosmos 1709 Rocket 4.4 00:32:45 21° SSW 00:36:48 57° WNW 00:42:49 10° N
Cosmos 1782 4.2 00:33:41 10° NNE 00:37:09 28° ENE 00:38:19 24° ESE
Cosmos 2221 Rocket 4.3 00:34:11 10° NNW 00:38:34 46° W 00:40:13 31° SW
Cosmos 2333 Rocket 3.8 00:36:16 10° NW 00:40:40 23° WSW 00:43:13 17° SW
Terra 4.1 00:39:13 10° WSW 00:41:51 15° W 00:44:29 10° NW
H-2A R/B 4.3 00:39:30 10° SW 00:42:44 16° W 00:46:00 10° NW
SL-16 R/B 2.6 00:38:10 10° NW 00:43:40 52° WSW 00:45:52 33° SSW
Cosmos 44 Rocket 3.7 00:42:25 39° SSE 00:43:51 51° ESE 00:48:56 10° NE
NOSS 2-3 (E) 4.1 00:43:23 39° S 00:45:06 60° ESE 00:50:46 10° NE
Cosmos 1340 Rocket 3.4 00:45:53 38° ESE 00:46:22 40° E 00:50:03 10° NNE
GEOS 3 Rocket 3.7 00:46:32 37° SSE 00:48:29 63° SW 00:53:38 10° NW
Cosmos 1607 4.3 00:43:51 10° NNW 00:49:58 62° NE 00:54:15 20° SE
CZ-4C R/B 3.4 00:44:12 10° NW 00:50:58 56° NE 00:58:25 10° ESE
Cosmos 1674 Rocket 4.2 00:47:04 10° N 00:51:21 47° ENE 00:52:46 35° SE
SL-08 ROCKET BODY 4.5 00:48:33 34° S 00:51:24 75° E 00:57:33 10° NNE
Meteor 2-10 Rocket 3.7 00:51:37 10° N 00:57:12 79° E 00:59:37 36° SSE
Cosmos 389 Rocket 3.4 00:54:38 10° NNW 00:57:59 37° W 00:58:22 36° WSW
Cosmos 1689 Rocket 2.2 00:58:09 77° SW 00:58:16 79° WSW 01:01:36 10° NNW
Cosmos 2154 Rocket 4.4 00:56:54 31° SSE 00:59:42 52° E 01:05:46 10° NNE
Cosmos 2297 Rocket 3.1 00:55:01 13° SW 00:59:51 46° NW 01:05:19 10° NNE
Cosmos 921 Rocket 4.0 01:01:30 29° ESE 01:01:58 29° E 01:05:38 10° NE
BREEZE-M DEB (TANK) 3.9 00:59:28 24° SW 01:02:02 73° SSE 01:15:07 10° ENE
USA 234 4.2 00:56:49 10° E 01:03:03 49° NNE 01:09:18 10° NW
CZ-2C R/B 3.4 00:58:12 10° NNE 01:03:05 38° E 01:04:42 30° SE
Cosmos 2084 Rocket 3.8 01:04:53 38° ESE 01:04:53 38° ESE 01:08:09 10° NE
Cosmos 1932 4.5 00:58:20 10° NW 01:04:44 75° WSW 01:07:49 33° SSE
Cosmos 1943 4.0 01:02:09 10° NNW 01:07:40 48° ENE 01:11:27 19° ESE
Cosmos 494 Rocket 4.1 01:02:28 10° NNW 01:07:46 75° ENE 01:09:59 35° SE
CZ-4B R/B 1.8 01:10:34 49° WSW 01:10:45 50° W 01:14:06 10° NNW
Cosmos 2184 Rocket 4.1 01:08:33 31° SSW 01:11:40 71° W 01:17:53 10° N
NOSS 2-3 (C) 4.0 01:09:53 31° SW 01:12:23 89° NNW 01:18:20 10° NE
SeaSat 1 3.6 01:12:26 25° SW 01:13:33 28° WSW 01:17:47 10° NW
Cosmos 807 4.3 01:13:09 10° N 01:16:13 67° E 01:16:21 66° E
Cosmos 1603 3.7 01:11:49 10° NNW 01:17:29 71° WSW 01:19:41 38° S
Meteor 2-6 Rocket 4.3 01:11:44 10° N 01:17:35 79° ENE 01:20:14 35° SSE
Cosmos 1862 4.4 01:22:24 31° ESE 01:23:07 33° E 01:26:45 10° NNE
Lacrosse 4 Rocket 3.1 01:21:02 10° WNW 01:24:22 21° WSW 01:24:39 21° WSW
Cosmos 1606 3.1 01:21:45 10° N 01:25:33 55° E 01:26:20 45° ESE
ASTEX 1 3.9 01:24:34 10° N 01:29:19 52° WNW 01:31:11 33° SW
Cosmos 1238 Rocket 2.8 01:26:14 10° N 01:30:26 65° E 01:31:03 53° SE
NOSS 3-2 (A) 4.1 01:23:32 10° NW 01:30:55 77° NE 01:38:11 13° SE
Cosmos 2341 Rocket 4.1 01:28:22 34° S 01:31:18 71° E 01:37:40 10° NNE
NOSS 3-4 (A) 4.4 01:30:30 28° SSE 01:32:29 34° ESE 01:38:18 10° NE
NOSS 3-4 (C) 4.4 01:30:36 28° SSE 01:32:35 34° ESE 01:38:23 10° NE
Cosmos 1356 Rocket 3.2 01:32:22 57° SSW 01:33:10 85° W 01:37:16 10° N
NOSS 2-3 (D) 4.3 01:30:31 25° SW 01:33:33 68° NW 01:39:30 10° NE
Uosat 12 SS-18 rocket 4.1 01:33:08 40° SSW 01:34:51 86° SE 01:39:18 10° NE
Aureole 2 Rocket 4.0 01:32:31 10° NW 01:34:34 23° W 01:34:34 23° W
Sich 1 Rocket 3.5 01:34:41 49° S 01:35:54 82° E 01:40:26 10° N
Cosmos 962 Rocket 4.4 01:38:05 35° S 01:40:49 81° E 01:46:58 10° N
Okean 3 3.8 01:38:12 10° N 01:42:30 60° E 01:43:51 39° SE
Cosmos 1733 Rocket 3.6 01:41:41 37° SW 01:43:04 51° WNW 01:47:26 10° N
MOS 1-B Rocket 3.9 01:41:17 36° S 01:43:36 64° WSW 01:49:10 10° NNW
Cosmos 1892 3.6 01:44:30 33° WSW 01:45:20 37° WNW 01:48:54 10° N
BREEZE-M DEB (TANK) 4.2 01:27:18 10° SW 01:47:01 71° SSE 01:51:49 10° ENE
H-2A R/B 4.0 01:44:19 10° N 01:47:58 29° WNW 01:49:51 21° WSW
SL-8 Rocket 4.3 01:45:33 30° SSE 01:48:38 58° E 01:54:50 10° NNE
ALOS 2 4.2 01:48:22 20° WSW 01:49:14 21° W 01:52:36 10° NW
Cosmos 44 3.5 01:48:37 38° SSW 01:50:44 79° SE 01:56:14 10° NE
Cosmos 1378 Rocket 3.4 01:49:03 10° NNW 01:53:28 79° W 01:54:36 49° S
Cosmos 2218 Rocket 4.4 01:53:12 28° SSE 01:56:23 55° E 02:02:33 10° NNE
Coronas F rocket 3.1 01:57:50 24° WNW 01:57:50 24° WNW 01:59:53 10° NNW
ATLAS 2AS CENTAUR R/B 4.2 01:54:59 10° W 02:02:15 40° NNW 02:09:52 10° NE
Cosmos 1408 2.5 02:05:24 58° S 02:06:05 84° E 02:09:53 10° N
Helios 1A Rocket 4.3 02:06:35 10° N 02:10:15 30° WNW 02:11:55 23° WSW
Cosmos 1825 2.1 02:10:18 56° SSW 02:11:02 84° W 02:14:52 10° N
Cosmos 2366 rocket 4.2 02:08:19 29° SSE 02:11:30 62° E 02:17:38 10° NNE
Cosmos 1782 4.2 02:10:12 10° NW 02:13:26 24° W 02:14:00 23° WSW
Okean 2 Rocket 3.1 02:13:58 42° S 02:15:29 83° E 02:20:01 10° N
ATLAS 3B R/B 4.4 02:12:54 10° WNW 02:15:58 13° WSW 02:17:16 13° WSW
Cosmos 1782 Rocket 3.5 02:17:59 43° SSW 02:19:20 77° W 02:23:45 10° N
Cosmos 2263 Rocket 2.3 02:19:12 33° S 02:21:44 68° ESE 02:27:24 10° NNE
CZ-2C R/B 3.6 02:21:36 32° SSW 02:23:57 51° W 02:29:26 10° NNW
SL-27 R/B 4.5 02:24:20 10° N 02:27:30 27° ENE 02:30:40 10° ESE
Cosmos 1727 Rocket 4.0 02:23:49 10° N 02:30:07 87° E 02:33:51 26° S
COSMOS 2406 3.8 02:28:22 10° NNW 02:34:07 59° ENE 02:39:47 10° SE
Cosmos 864 Rocket 4.4 02:31:25 29° S 02:34:46 86° E 02:40:57 10° N
Cosmos 1867 3.6 02:30:57 10° NW 02:36:23 62° WSW 02:39:21 26° SSE
RESURS DK-1 2.6 02:36:20 38° S 02:37:37 57° ESE 02:41:43 10° NE
Cosmos 1975 Rocket 3.7 02:35:01 10° NNW 02:39:07 39° W 02:40:19 32° SW
CZ-4C R/B 3.3 02:32:56 10° NW 02:39:34 43° WSW 02:43:31 25° S
ATLAS 5 CENTAUR R/B 4.4 02:34:46 10° NNW 02:39:45 29° NNE 02:45:03 10° E
Cosmos 921 Rocket 4.4 02:38:18 20° WSW 02:40:14 28° WNW 02:43:54 10° N
Abrixas rocket 3.2 02:43:34 33° SE 02:43:34 33° SE 02:46:20 10° E
CZ-2C R/B 3.8 02:38:40 10° N 02:43:17 32° WNW 02:46:13 18° WSW
Iridium 4 Rocket 3.4 02:39:12 10° N 02:43:50 77° E 02:46:34 27° S
Cosmos 1624 Rocket 4.2 02:41:52 30° S 02:44:23 65° ESE 02:49:36 10° NNE
USA 234 3.2 02:39:19 10° SE 02:45:52 76° SW 02:52:26 10° NW
Elektron 3 4.0 02:43:02 10° NW 02:45:58 82° SW 02:50:36 10° SE
Resurs 1-4 Rocket 4.5 02:47:09 10° NE 02:49:53 14° E 02:52:34 10° ESE
Cosmos 1536 Rocket 3.5 02:46:42 10° N 02:51:07 90° WSW 02:53:18 29° S
Cosmos 1943 4.2 02:46:37 10° NW 02:51:29 30° WSW 02:53:13 25° SW
Cosmos 1242 Rocket 2.4 02:48:21 10° NNW 02:51:49 66° W 02:52:43 45° SSW
CENTAUR R/B 3.5 02:45:39 10° NW 02:53:17 66° NE 03:01:29 10° SE
USA 161 4.3 02:52:51 10° ESE 02:54:49 17° ENE 02:56:49 10° NNE
PSLV R/B 3.4 02:50:54 10° N 02:55:08 80° WNW 02:56:56 33° SSW
Meteor 1-14 Rocket 4.3 02:52:04 27° SSW 02:55:28 82° WNW 03:01:23 10° N
Cosmos 1184 Rocket 3.2 02:55:58 41° SW 02:56:47 54° WNW 03:00:06 10° N
SL-08 R/B 3.6 02:53:30 17° SSE 02:57:16 71° ENE 03:02:10 10° N
NOSS 3-2 (C) 4.3 02:50:58 10° NW 02:58:04 48° WSW 03:03:50 18° S
ARIANE 5 R/B 4.4 02:59:22 10° NE 03:03:16 22° E 03:07:09 10° SE
Cosmos 1452 Rocket 4.4 03:02:35 19° SSE 03:05:58 41° ESE 03:10:52 10° NE
Landsat 4 3.9 03:06:50 34° SSW 03:08:10 53° W 03:11:54 10° NNW
ADEOS 4.5 03:04:57 10° NNE 03:09:56 42° E 03:13:55 15° SSE
AQUA 4.1 03:06:57 10° NNE 03:11:41 61° ESE 03:14:45 21° S
CBERS-1 4.3 03:07:24 10° NNE 03:12:32 64° ESE 03:16:01 20° S
Cosmos 1000 Rocket 4.5 03:06:55 10° N 03:13:06 84° E 03:18:26 14° S
Cosmos 2151 Rocket 3.9 03:12:10 28° SW 03:14:19 55° WNW 03:18:44 10° N
Okean 1-7 Rocket 3.8 03:12:09 10° N 03:16:44 71° E 03:20:31 15° SSE
BREEZE-M DEB (TANK) 4.5 02:56:16 10° W 03:18:16 75° N 03:22:58 10° E
Meteor 1-18 Rocket 4.3 03:13:45 10° NNW 03:19:19 61° W 03:23:12 20° S
NOSS 3-4 (A) 4.0 03:17:55 16° WSW 03:23:07 57° NW 03:29:42 10° NE
NOSS 3-4 (C) 4.0 03:18:01 16° WSW 03:23:12 58° NW 03:29:47 10° NE
NPP 3.6 03:19:35 10° NNE 03:25:01 87° WNW 03:28:45 21° SSW
Okean 1 Rocket 3.2 03:22:11 21° S 03:25:07 72° E 03:29:35 10° NNE
COSMOS 2487 4.2 03:21:50 10° N 03:25:13 34° ENE 03:28:33 10° SE
SL-16 R/B 3.3 03:20:43 10° SE 03:26:43 52° ENE 03:32:44 10° N
Gbstr 26 Del rocket 4.0 03:26:00 21° S 03:27:27 26° SE 03:30:38 10° E
Cosmos 1190 Rocket 4.4 03:25:15 10° NNW 03:30:13 44° WSW 03:33:29 20° SSW
Okean O Rocket 4.4 03:29:41 10° ENE 03:30:35 11° E 03:31:30 10° E
Cosmos 1140 Rocket 3.8 03:28:59 10° NNW 03:34:08 66° ENE 03:39:14 10° SSE
Cosmos 724 4.4 03:30:19 10° NW 03:36:20 60° WSW 03:42:23 10° SSE
Cosmos 2123 Rocket 4.2 03:31:10 10° N 03:37:32 74° E 03:43:51 10° SSE
Cosmos 1821 Rocket 4.1 03:32:45 16° S 03:38:05 86° E 03:44:32 10° N
IRAS Rocket 4.3 03:33:18 10° NNE 03:38:47 69° WNW 03:42:53 18° SSW
GP-B 3.2 03:35:48 10° N 03:40:14 65° W 03:43:18 19° SSW
Cosmos 2056 Rocket 4.1 03:38:19 18° SW 03:41:59 48° WNW 03:47:04 10° NNE
ERS-2 2.3 03:38:59 10° N 03:42:41 65° WNW 03:44:57 22° SSW
Cosmos 1850 Rocket 4.5 03:40:17 10° NNW 03:45:30 64° ENE 03:50:44 10° SSE
CZ-2D R/B 3.3 03:40:32 10° NNE 03:45:40 41° E 03:50:48 10° SSE
Meteor 1-20 Rocket 4.5 03:41:32 18° SSW 03:45:50 63° WNW 03:51:36 10° N
Cosmos 407 Rocket 4.0 03:41:11 10° NW 03:45:59 40° WSW 03:49:42 16° SSW
Cosmos 1741 Rocket 4.5 03:41:58 10° NNW 03:47:16 65° ENE 03:52:28 10° SSE
Cosmos 1812 3.5 03:43:57 10° NNW 03:47:32 35° W 03:49:36 20° SW
Meteor 2-21 Rocket 4.5 03:42:26 14° S 03:47:49 84° E 03:53:58 10° N
Meteor 1-11 Rocket 4.1 03:43:04 12° S 03:48:34 71° E 03:54:32 10° NNE
Spot 4 Rocket 4.1 03:43:52 10° NNE 03:49:03 79° ESE 03:53:33 14° S
Cosmos 1025 Rocket 3.2 03:45:14 10° N 03:49:33 75° E 03:53:51 10° SSE
Meteor 1-13 Rocket 4.2 03:44:42 10° NNW 03:50:22 74° W 03:56:08 10° S
EO 1 Del DPAF 3.8 03:47:36 10° SSE 03:51:26 61° ENE 03:55:18 10° N
BREEZE-M DEB (TANK) 4.1 03:48:09 10° WNW 03:52:25 80° NNE 04:10:23 10° ESE
Cosmos 676 Rocket 4.3 03:48:58 10° NNW 03:53:54 45° WSW 03:58:33 11° S
Okean 1 4.4 03:57:55 10° NNW 04:01:24 29° W 04:03:47 16° SW
SL-27 R/B 3.8 03:59:43 10° NW 04:02:42 24° W 04:04:27 17° SW
Cosmos 1844 Rocket 2.7 03:58:18 15° SSW 04:03:02 86° WNW 04:08:45 10° NNE
IRS-1C 4.4 03:59:35 10° N 04:04:51 59° WNW 04:09:25 14° SSW
Cosmos 2263 Rocket 3.8 04:01:34 10° WSW 04:06:11 25° NW 04:10:50 10° N
Cosmos 1400 Rocket 3.4 04:04:57 10° S 04:08:44 53° E 04:12:35 10° NNE
IRS-1D 3.6 04:04:14 10° NNE 04:09:22 77° ESE 04:14:22 10° S
Meteor 1-23 Rocket 4.3 04:03:47 10° N 04:09:33 83° ENE 04:15:13 10° SSE
Cosmos 1844 3.8 04:05:37 13° SSW 04:10:44 83° ESE 04:16:32 10° NNE
NOSS 2-2 (E) 3.9 04:07:42 14° SSW 04:11:17 65° SE 04:16:19 10° NE
Meteor 2-16 Rocket 4.5 04:06:53 10° SSW 04:12:58 78° W 04:19:10 10° N
Cosmos 1544 Rocket 3.9 04:11:21 10° S 04:15:45 68° E 04:20:07 10° NNE
RESURS DK-1 4.4 04:13:02 10° W 04:16:03 19° NW 04:19:04 10° N
COSMOS 2406 4.4 04:13:26 10° NW 04:18:00 25° WSW 04:22:28 10° SSW
Abrixas rocket 2.4 04:16:49 10° W 04:20:12 78° N 04:23:34 10° ENE
Cosmos 2278 Rocket 2.4 04:18:59 10° SSW 04:24:37 74° ESE 04:30:19 10° NNE
USA 161 2.9 04:23:19 14° SW 04:25:03 22° W 04:27:27 10° NW
ATLAS 5 CENTAUR R/B 2.4 04:19:11 10° NW 04:25:06 83° SW 04:31:29 10° SE
USA 234 4.3 04:24:39 10° S 04:29:35 22° SW 04:34:32 10° WNW
Resurs 1-4 Rocket 2.2 04:25:04 10° NNE 04:30:26 86° WNW 04:35:44 10° SSW
UNK 3.9 04:26:07 10° S 04:30:38 55° W 04:35:14 10° NNW
USA 129 2.7 04:29:08 10° SSE 04:31:11 47° ENE 04:33:11 10° N
Cosmos 614 Rocket 4.0 04:27:58 10° NNW 04:33:05 61° WSW 04:38:07 10° S
Cosmos 1892 Rocket 3.7 04:31:02 10° NNW 04:35:17 54° W 04:39:30 10° S
Cosmos 1315 Rocket 3.3 04:31:19 10° S 04:35:21 64° E 04:39:22 10° NNE
OPS 6432 4.3 04:35:08 10° SSW 04:38:26 76° SE 04:41:34 10° NE
CZ-4B R/B 4.3 04:33:26 10° NNE 04:38:52 45° E 04:44:15 10° S
Cosmos 1174 3.9 04:35:36 10° NNW 04:39:31 67° NE 04:42:45 10° SE
Cosmos 2082 Rocket 2.6 04:34:38 10° NNW 04:40:23 73° ENE 04:46:05 10° SSE
ARIANE 5 R/B 2.9 04:37:51 10° N 04:42:41 50° WNW 04:47:30 10° SW
CENTAUR R/B 3.6 04:36:45 10° NW 04:43:49 38° WSW 04:51:14 10° S
Okean 2 3.5 04:40:02 10° NNW 04:44:03 55° W 04:48:03 10° S
MTI 4.2 04:41:36 10° S 04:44:48 46° W 04:48:01 10° NNW
Cosmos 1346 Rocket 4.4 04:41:08 10° N 04:45:01 40° ENE 04:48:49 10° SE
MOZ.5/SAFIR/RUBIN 5/SL-8 4.3 04:40:23 10° SSE 04:45:06 66° ENE 04:49:52 10° N
Meteor 2-4 Rocket 3.9 04:40:06 10° NNW 04:45:18 48° W 04:50:24 10° SSW
Timation 2 Rocket 4.0 04:42:04 10° NW 04:48:09 60° WSW 04:54:01 10° S
Cosmos 1975 3.8 04:46:47 10° SSE 04:50:36 47° E 04:54:28 10° NNE
